User: anonymous
Location: Clatteringshaws Loch
(55.0508°N, 4.2860°W)
Time: 06:32:07
(UTC+01:00)
Language:

Sapphire - Orbit

View from above orbital plane
View from above orbital plane
View from above satellite
View from above satellite

Ground track
Ground track

The orbit data is extracted from the following two-line orbital elements,

1 26932U 01043D   14234.46221605 -.00000058  00000-0  96867-5 0  6857
2 26932 067.0554 228.5712 0006311 294.9523 065.0922 14.30022253673128
Epoch (UTC): 22 August 2014 11:05:35
Eccentricity: 0.0006311
inclination: 67.0554°
perigee height: 787 km
apogee height: 796 km
right ascension of ascending node: 228.5712°
argument of perigee: 294.9523°
revolutions per day: 14.30022253
mean anomaly at epoch: 65.0922°
orbit number at epoch: 67312

The dashed part of the orbit path shows where the satellite is in the earth's shadow,  

DLR